Вернуться в каталог

PANDORA

АктивенНаукаSSO
NORAD 67395·PAYLOAD·🇺🇸 United States

Запущен Jan 11, 2026 с Vandenberg Space Force Base

Loading…

Ближайшие Пролёты (ближайшие 24 часа)

TLE

СвежийSource: Space-Track

Эпоха: Sep 14, 2026, 11:08 UTC

1 67395U 26004AJ  26257.46403054  .00000541  00000-0  64563-4 0  9998
2 67395  97.8103 254.7693 0005022 178.3355 181.7880 14.88199450 36558

Отслеживайте PANDORA в реальном времени с AllMySat

Download on the App Store